Weather History for Resolute, NU

Change the Weather History Date:

Friday, May 10, 2013

  Actual Average Record
Temperature  
Mean Temperature -8 °F -  
Max Temperature 0 °F 12 °F 32 °F (2006)
Min Temperature -15 °F 4 °F -15 °F (2013)
Degree Days  
Heating Degree Days 72    
Moisture  
Dew Point -14 °F    
Average Humidity 67    
Maximum Humidity 84    
Minimum Humidity 52    
Precipitation  
Precipitation 0.00 in - - ()
Sea Level Pressure  
Sea Level Pressure 29.96 in    
Wind  
Wind Speed 9 mph ()    
Max Wind Speed 16 mph    
Max Gust Speed 17 mph    
Visibility 14.8 miles    
Events Snow    
Averages and records for this station are not official NWS values.
T = Trace of Precipitation, MM = Missing Value Source: Averaged Metar Reports

Daily Weather History Graph

Daily Weather History Graph

Search for Another Location

Airport:

Trip Planner

Search our weather history database for the weather conditions in past years. The results will help you decide how hot, cold, wet, or windy it might be!

Date:

Astronomy

Dec. 31, 1969 Rise Set
Actual Time Sun does not rise Sun does not rise
Civil Twilight Sun does not rise Sun does not rise
Nautical Twilight Sun does not rise Sun does not rise
Astronomical Twilight Sun does not rise Sun does not rise
Moon No Moon Rise No Moon Set
Length of Visible Light 24h 00m
Length of Day
24h 00m
New Moon, 0% of the Moon is Illuminated
May 10
New Moon
May 17
First Quarter
May 24
Full
May 31
Last Quarter
Jun 8
New

Hourly Weather History & Observations

Time (CDT) Temp. Windchill Dew Point Humidity Pressure Visibility Wind Dir Wind Speed Gust Speed Precip Events Conditions
12:00 AM -7.6 °F -23.4 °F -16.6 °F 65% 29.90 in 15.0 mi NW 8.1 mph - N/A   Scattered Clouds
1:00 AM -8 °F - -16 °F 54% 29.90 in 15 mi NNW 8.1 mph - - Snow Snow
1:00 AM -7.6 °F -23.4 °F -16.6 °F 65% 29.90 in 15.0 mi NNW 8.1 mph - N/A   Partly Cloudy
2:00 AM -11.2 °F -24.8 °F -18.4 °F 70% 29.91 in 15.0 mi NW 5.8 mph - N/A   Partly Cloudy
2:16 AM - - - N/A% - 15.0 mi NNW 5.8 mph - N/A   Scattered Clouds
3:00 AM -11.2 °F -27.8 °F -18.4 °F 70% 29.91 in 15.0 mi NNW 8.1 mph - N/A   Scattered Clouds
3:16 AM - - - N/A% - 15.0 mi North 10.4 mph - N/A   Mostly Cloudy
3:44 AM - - - N/A% - 15.0 mi North 10.4 mph - N/A   Mostly Cloudy
4:00 AM -11.2 °F -30.1 °F -20.2 °F 64% 29.92 in 15.0 mi NW 10.4 mph - N/A   Overcast
5:00 AM -14.8 °F -34.6 °F -22.0 °F 70% 29.93 in 15.0 mi NW 10.4 mph - N/A   Partly Cloudy
6:00 AM -13.0 °F -32.4 °F -22.0 °F 64% 29.94 in 15.0 mi NW 10.4 mph - N/A   Partly Cloudy
7:00 AM -14 °F - -22 °F 52% 29.95 in 15 mi WNW 8.1 mph - - Snow Snow
7:00 AM -13.0 °F -30.0 °F -22.0 °F 64% 29.95 in 15.0 mi WNW 8.1 mph - N/A   Partly Cloudy
8:00 AM -13.0 °F -28.6 °F -22.0 °F 64% 29.95 in 15.0 mi NW 6.9 mph - N/A   Partly Cloudy
9:00 AM -11.2 °F -23.0 °F -14.8 °F 84% 29.95 in 15.0 mi NW 4.6 mph - N/A   Partly Cloudy
10:00 AM -9.4 °F -27.9 °F -16.6 °F 71% 29.95 in 15.0 mi NW 10.4 mph - N/A   Mostly Cloudy
11:00 AM -5.8 °F -21.2 °F -14.8 °F 65% 29.96 in 15.0 mi NW 8.1 mph - N/A   Mostly Cloudy
12:00 PM -4.0 °F -23.7 °F -13.0 °F 65% 29.96 in 15.0 mi NW 13.8 mph - N/A   Mostly Cloudy
12:20 PM - - - N/A% - 12.0 mi NW 12.7 mph - N/A   Unknown
1:00 PM -2.2 °F -22.9 °F -11.2 °F 66% 29.97 in 12.0 mi NW 16.1 mph - N/A Snow Light Snow
2:00 PM -2.2 °F -22.2 °F -13.0 °F 60% 29.97 in 15.0 mi NNW 15.0 mph - N/A Snow Light Snow
3:00 PM -2.2 °F -21.5 °F -13.0 °F 60% 29.98 in 15.0 mi NW 13.8 mph - N/A Snow Light Snow
4:00 PM -0.4 °F -19.2 °F -7.6 °F 72% 29.99 in 15.0 mi NNW 13.8 mph - N/A Snow Light Snow
5:00 PM -0.4 °F -19.2 °F -7.6 °F 72% 30.00 in 15.0 mi NNW 13.8 mph - N/A Snow Light Snow
6:00 PM -0.4 °F -19.2 °F -7.6 °F 72% 30.00 in 15.0 mi NNW 13.8 mph - N/A Snow Light Snow
7:00 PM -2 °F - -8 °F 63% 30.01 in 15 mi NNW 11.5 mph - - Snow Light Snow
7:00 PM -2.2 °F -19.9 °F -7.6 °F 78% 30.01 in 15.0 mi NNW 11.5 mph 17.3 mph N/A Snow Light Snow
8:00 PM -2.2 °F -20.7 °F -9.4 °F 71% 30.01 in 15.0 mi NW 12.7 mph - N/A Snow Light Snow
9:00 PM -2.2 °F -16.8 °F -9.4 °F 71% 30.04 in 15.0 mi NNW 8.1 mph - N/A Snow Light Snow
10:00 PM -2.2 °F -18.0 °F -9.4 °F 71% 30.01 in 15.0 mi NW 9.2 mph - N/A Snow Light Snow
11:00 PM -2.2 °F -18.0 °F -11.2 °F 66% 30.01 in 15.0 mi NW 9.2 mph - N/A   Mostly Cloudy